Погода в Кунгуре

Россия / Пермский край     57°25′43″N   56°56′39″E
В апреле 2022 года жителям России запретили посещать сайт meteo.paraplan.net по решению Генеральной прокуратуры. Аудитория сайта уменьшилась в 10 раз. Владельцы сайта не видят смысла в поддержке погодного сервера в таких условиях. Сайт будет закрыт в октябре.
темп.,
°C
ветер,
м/с
пор.,
м/с
влажн.,
%
обл.,
%
осадки,
мм/ч
давл.,
гПа
погр.,
м
6 октября, чт
чт623:00+8ю5124595 0.0 1024570
02:00+9ю41044100 0.0 1023594
05:00+8ю5866100 0.1 1021533
08:00+7ю41092100 1.7 1020583
11:00+8ююв41072100 2.1 1017493
14:00+8ю51273100 0.1 1016741
17:00+8ююз51065100 0.2 1015593
20:00+7ююз51179100 0.0 1015508
7 октября, пт
пт723:00+7ююз51088100 0.5 1015396
02:00+7ююз51090100 0.3 1014431
05:00+5юз4992100 0.3 1014358
08:00+7юз51092100 0.4 1013662
11:00+8зюз588199 0.5 1013860
14:00+10зюз7969100 0.3 10121212
17:00+9юз6966100 0.4 10111021
20:00+7юз6985100 0.6 10111034
8 октября, сб
сб823:00+7юз5991100 2.4 10101095
02:00+7зсз589198 0.4 1010656
05:00+6з3788100 0.5 1011294
08:00+7зюз4991100 0.1 1011482
11:00+9зсз497775 0.1 1013653
14:00+9зсз5981100 0.3 1014839
17:00+9зсз697288 0.4 1016980
20:00+8з41177100 0.1 1018550
9 октября, вс
вс923:00+6з498368 0.1 1019239
02:00+5зюз499253 0.0 1019231
05:00+4юз4109590 0.0 1020256
08:00+6юз5128886 0.0 1019409
11:00+9зюз7117540 0.0 1019648
14:00+12зюз8106676 0.0 10181017
17:00+12юз7117074 0.0 1018955
20:00+9юз6138181 0.0 1019498
10 октября, пн
пн1023:00+9юз6138196 0.0 1018457
02:00+8юз61382100 0.0 1018452
05:00+8юз61382100 0.0 1017426
08:00+7ююз71581100 0.0 1017435
11:00+11юз8166172 0.0 1016723
14:00+14юз9155381 0.0 10141384
17:00+12зюз81365100 0.1 10141169
20:00+10зюз61185100 1.5 1016722